Location: Peach Mountain Observatory
(42.3967°N, 83.9367°W)
Time: 09:37:29
(UTC-05:00)

Explorer 7 - Pass Details

Date: 25 January 2020
Orbit: 485 x 679 km, 50.3° (Epoch: 28 February)

Event Time Altitude Azimuth Distance (km) Brightness Sun altitude
Exits shadow 05:07:57 18° 129° (SE) 1,360 9.3 -31.0°
Drops below altitude 10° 05:09:04 10° 128° (SE) 1,802 10.0 -30.8°
Sets 05:11:22 0° 127° (SE) 2,726 11.1 -30.4°
